User: anonymous   Login
Location: Observatorio Las Palmas
(29.0667°N, 110.9333°W)
Time: 21:13:54
(UTC-07:00)
Language:

NOAA 19 - Orbit

View from above orbital plane
View from above orbital plane
View from above satellite
View from above satellite

Ground track
Ground track

The orbit data is extracted from the following two-line orbital elements,

1 33591U 09005A   15148.82049944  .00000312  00000-0  17072-3 0  9990
2 33591 098.9872 098.6540 0013061 222.7754 137.2876 14.11938522324760
Epoch (UTC): 28 May 2015 19:41:31
Eccentricity: 0.0013061
inclination: 98.9872°
perigee height: 843 km
apogee height: 862 km
right ascension of ascending node: 98.6540°
argument of perigee: 222.7754°
revolutions per day: 14.11938522
mean anomaly at epoch: 137.2876°
orbit number at epoch: 32476

The dashed part of the orbit path shows where the satellite is in the earth's shadow,  

DLR